Location: ???????
(55.9142°N, 37.8256°E)
Time: 14:17:31
(UTC+00:00)

ATLAS 3B R/B - Visible Passes

Search period start: 12 July 2024 00:00
Search period end: 22 July 2024 00:00
Orbit: 941 x 1252 km, 63.8° (Epoch: 11 July)

Date Brightness Start Highest point End Pass type
(mag) Time Alt. Az. Time Alt. Az. Time Alt. Az.
12 Jul 3.8 20:46:49 15° SSE 20:51:46 31° ESE 20:58:16 10° ENE visible
12 Jul 3.0 22:34:25 10° SW 22:41:46 86° SE 22:49:35 10° NE visible
13 Jul 4.2 20:00:20 12° SSE 20:04:55 21° ESE 20:10:17 10° ENE visible
13 Jul 3.0 21:47:31 11° SSW 21:54:23 67° SE 22:02:04 10° NE visible
13 Jul 3.5 23:38:05 10° WSW 23:45:28 60° NNW 23:53:14 10° ENE visible
14 Jul 4.5 19:14:54 10° SE 19:18:12 14° E 19:21:35 10° ENE visible
14 Jul 3.2 21:00:57 13° SSW 21:07:10 49° SE 21:14:30 10° NE visible
14 Jul 3.2 22:50:24 10° WSW 22:57:48 72° NNW 23:05:38 10° NE visible
15 Jul 3.6 20:14:16 12° S 20:20:05 35° ESE 20:26:50 10° NE visible
15 Jul 3.0 22:02:52 10° SW 22:10:14 88° NW 22:18:06 10° NE visible
15 Jul 3.8 23:54:28 10° W 00:01:48 51° NNW 00:09:28 10° ENE visible
16 Jul 4.0 19:27:40 10° SSE 19:33:11 24° ESE 19:38:57 10° ENE visible
16 Jul 2.9 21:15:34 10° SW 21:22:49 73° SE 21:30:34 10° NE visible
16 Jul 3.6 23:06:39 10° W 23:14:01 58° NNW 23:21:46 10° ENE visible
17 Jul 3.1 20:28:33 10° SSW 20:35:33 54° SE 20:43:01 10° NE visible
17 Jul 3.3 22:18:55 10° WSW 22:26:19 68° NNW 22:34:09 10° NE visible
18 Jul 4.1 00:10:54 10° WNW 00:18:15 48° N 00:25:50 10° ENE visible
18 Jul 3.4 19:41:53 10° S 19:48:26 39° ESE 19:55:23 10° NE visible
18 Jul 3.0 21:31:20 10° SW 21:38:44 83° NW 21:46:35 10° NE visible
18 Jul 3.9 23:23:03 10° W 23:30:23 50° N 23:38:01 10° ENE visible
19 Jul 3.8 18:55:39 10° SSE 19:01:28 27° ESE 19:07:35 10° ENE visible
19 Jul 2.9 20:43:58 10° SW 20:51:16 79° SE 20:59:03 10° NE visible
19 Jul 3.7 22:35:13 10° W 22:42:35 55° NNW 22:50:18 10° ENE visible
20 Jul 3.0 19:56:51 10° SSW 20:03:57 60° SE 20:11:31 10° NE visible
20 Jul 3.4 21:47:28 10° WSW 21:54:51 64° NNW 22:02:39 10° NE visible
20 Jul 4.1 23:39:29 10° WNW 23:46:51 48° N 23:54:26 10° ENE visible
21 Jul 3.3 19:10:03 10° S 19:16:46 43° ESE 19:23:55 10° NE visible
21 Jul 3.1 20:59:49 10° WSW 21:07:13 78° NW 21:15:04 10° NE visible
21 Jul 4.0 22:51:39 10° W 22:58:59 49° N 23:06:36 10° ENE visible
